User: anonymous   Login
Location: Sherrills_Ford_Terrell
(35.6000°N, 80.9830°W)
Time: 15:34:36
(UTC-04:00)
Language:

CZ-4B R/B - Orbit

View from above orbital plane
View from above orbital plane
View from above satellite
View from above satellite

Ground track
Ground track

The orbit data is extracted from the following two-line orbital elements,

1 29093U 06015B   18145.92833572 +.00002846 +00000-0 +64350-4 0  9995
2 29093 097.5251 271.3154 0060718 162.0932 198.2474 15.42143664670219
Epoch (UTC): 25 May 2018 22:16:48
Eccentricity: 0.0060718
inclination: 97.5251°
perigee height: 398 km
apogee height: 481 km
right ascension of ascending node: 271.3154°
argument of perigee: 162.0932°
revolutions per day: 15.42143664
mean anomaly at epoch: 198.2474°
orbit number at epoch: 67021

The dashed part of the orbit path shows where the satellite is in the earth's shadow,  

DLR